Flag for U.S.A. Weather past 2 weeks in Downey, California, U.S.A.

Now
58 °F

Sunny.


Feels Like: 55 °F
Forecast: 41 / 62 °F
Wind: 12 mph from East

Location: Long Beach Airport

Current Time: Dec 26, 2014 at 10:37:20 AM

Latest Report: Dec 26, 2014 at 9:53 AM


Visibility: 10 mi

Pressure: 30.09 "Hg

Humidity: 23%

Dew point: 20 °F

Location of DowneyLocation

Historic Weather in Downey — Graph

°F

Downey temperature yesterday

Maximum temperature yesterday: 66 °F (at 1:53 PM)
Minimum temperature yesterday: 50 °F (at 11:53 PM)
Average temperature yesterday: 58 °F

Past Weeks' High & Low Weather Summary

 TemperatureHumidityPressure
High82 °F (Dec 23, 1:53 PM)100% (Dec 12, 7:53 AM)30.24 "Hg (Dec 12, 7:53 AM)
Low41 °F (Dec 26, 4:53 AM)18% (Dec 25, 5:53 PM)29.78 "Hg (Dec 25, 3:53 AM)
Average58 °F73%30.04 "Hg
* Reported Dec 11 8:53 AM — Dec 26 8:53 AM, Downey, Weather by CustomWeather, © 2014

Note: Actual official high and low records may vary slightly from our data, if they occured in-between our weather recording intervals... More about our weather records

Advertising

Downey weather history for previous 24 hours

 ConditionsComfort  
Time TempWeatherWind HumidityBarometerVisibility
8:53 AM
Dec 26
55 °FSunny.5 mph34%30.07 "Hg10 mi
7:53 AM44 °FSunny.6 mph58%30.06 "Hg10 mi
6:53 AM44 °FClear.3 mph51%30.03 "Hg10 mi
5:53 AM43 °FClear.7 mph56%30.00 "Hg10 mi
4:53 AM41 °FClear.3 mph62%29.98 "Hg10 mi
3:53 AM44 °FClear.5 mph51%29.96 "Hg10 mi
2:53 AM46 °FClear.No wind46%29.96 "Hg10 mi
1:53 AM49 °FClear.3 mph39%29.95 "Hg10 mi
12:53 AM48 °FClear.6 mph46%29.94 "Hg10 mi
11:53 PM
Dec 25
50 °FClear.No wind39%29.93 "Hg10 mi
10:53 PM52 °FClear.3 mph35%29.93 "Hg10 mi
9:53 PM51 °FClear.7 mph38%29.92 "Hg10 mi
8:53 PM53 °FClear.No wind32%29.90 "Hg10 mi
7:53 PM54 °FClear.14 mph31%29.88 "Hg10 mi
6:53 PM56 °FClear.16 mph26%29.87 "Hg10 mi
5:53 PM59 °FClear.15 mph18%29.85 "Hg10 mi
4:53 PM61 °FClear.10 mph20%29.83 "Hg10 mi
3:53 PM64 °FSunny.17 mph20%29.82 "Hg10 mi
2:53 PM66 °FSunny.18 mph19%29.81 "Hg10 mi
1:53 PM66 °FSunny.15 mph20%29.80 "Hg10 mi
12:53 PM65 °FSunny.16 mph24%29.82 "Hg10 mi
11:53 AM65 °FSunny.7 mph27%29.83 "Hg10 mi
10:53 AM64 °FSunny.8 mph41%29.87 "Hg10 mi
Weather by CustomWeather, © 2014

See weather overviewHow to use our weather pages